XM-1 (ROLL)

Last updated on Oct. 23, 2016, 9:18 a.m. UTC

1 26761U 01018A   16297.24129388 -.00000240  00000-0  00000+0 0  9990
2 26761   0.5713  89.3287 0010751 130.3331 214.1786  0.99007647 56669
UTC
Height (km)
Latitude
Longitude
Inclination
Orbital Period
UTC large
Height (km)
Speed (km/s)
/
Latitude / Longitude
Inclination (degrees)
Orbital Period (minutes)
Azimuth
Elevation
Range (km)
Doppler Factor
iOS Compass Heading
iOS Angle

Next 30 passes for location: Hong Kong

Rise time Rise Azimuth (degrees) Set time Set Azimuth (degrees) Duration Max altitude (degrees)

No matching passes for this satellites